Location: Peterborough
(44.3091°N, 78.3197°W)
Time: 05:31:24
(UTC-04:00)

Vanguard 2 - Pass Details

Date: 29 March 2023
Orbit: 552 x 2926 km, 32.9° (Epoch: 04 June)

Event Time Altitude Azimuth Distance (km) Brightness Sun altitude
Rises 12:08:02 0° 275° (W) 6,088 11.9 46.3°
Reaches altitude 10° 12:14:20 10° 259° (WSW) 4,604 11.5 46.8°
Maximum altitude 12:21:04 17° 225° (SW) 3,467 11.3 47.3°
Drops below altitude 10° 12:26:21 10° 189° (S) 3,449 11.7 47.6°
Sets 12:30:05 0° 169° (SSE) 4,016 11.9 47.8°
